STARLINK-4478 (53529 NORAD) Tracking and Keplerian Element Data

This shows tracking and keplerian element data for the satellite.

Feedback or suggestion? Click here.




ElementValue
Catalog53529
NameSTARLINK-4478
Epoch Orbit1423
Epoch Day324.60031065
Epoch Year2022
RAAN83.9699
Inclination53.216
Eccentricity0.0001454
Argument of Perigee52.1274
Mean Anonmoly307.985
Mean Motion15.08838158
Decay Rate1.18E-05
L11 53529U 22101C 22324.60031065 .00001180 00000+0 92202-4 0 9992
L22 53529 53.2160 83.9699 0001454 52.1274 307.9850 15.08838158 14231



Live tracking and technical data element details for STARLINK-4478 (NORAD 53529). STARLINK-4478 can be tracked NOW for your location showing map with azimuth and elevation plus other details from your city location.







IsCatalogInMostPopularTable: catalog: 53529, numindb: 4
Update: records affected: 1



GetName: 53529 STARLINK-4478

Hit Count: updated at: Thu, 08 Dec 2022 08:59:55 GMT